Location: Unspecified
(0.0000°N, 0.0000°E)
Time: 19:00:41
(UTC+00:00)

Vanguard 2 Rocket - Pass Details

Date: 22 January 2020
Orbit: 554 x 3327 km, 32.9° (Epoch: 20 February)

Event Time Altitude Azimuth Distance (km) Brightness Sun altitude
Rises 22:16:59 0° 216° (SW) 5,433 11.4 -55.7°
Reaches altitude 10° 22:23:53 10° 191° (S) 3,672 10.2 -57.1°
Enters shadow 22:24:31 11° 187° (S) 3,540 10.1 -57.2°
Maximum altitude 22:27:24 13° 167° (SSE) 3,067 - -57.8°
Drops below altitude 10° 22:30:20 10° 143° (SE) 2,929 - -58.4°
Sets 22:34:25 0° 113° (ESE) 3,426 - -59.1°
